This demonstration page uses our WeatherBlox Daily Observations layout. Learn more.

Left ArrowRight Arrow

Hourly Observations for June 13, 2017

Temp ( °F °C ) Dew Point ( °F °C ) Humidity (%) Winds ( mph kmh ) Pressure ( in mb ) Visibility ( mi km ) Precip ( " mm )
12:59 am 00:59 Mostly Cloudy 78 25.6 68 20 71 71 SSW 10 17 30.07 1018 9 14 0.00 0.00
1:59 am 01:59 Mostly Cloudy 76 24.4 68 20 77 77 SW 9 15 30.07 1018 9 14 0.00 0.00
2:59 am 02:59 Mostly Cloudy 75 23.9 67 19.4 76 76 SW 10 17 30.06 1018 9 14 0.00 0.00
3:59 am 03:59 Mostly Cloudy 74 23.3 66 18.9 76 76 SSW 10 17 30.06 1018 10 16 0.00 0.00
4:59 am 04:59 Mostly Cloudy 73 22.8 66 18.9 79 79 SSW 7 11 30.06 1018 10 16 0.00 0.00
5:59 am 05:59 Mostly Cloudy 72 22.2 65 18.3 79 79 SSW 5 7 30.07 1018 9 14 0.00 0.00
6:59 am 06:59 Mostly Cloudy 74 23.3 65 18.3 74 74 SSW 8 13 30.07 1018 9 14 0.00 0.00
7:59 am 07:59 Mostly Cloudy 75 23.9 66 18.9 74 74 SW 7 11 30.06 1018 8 13 0.00 0.00
8:59 am 08:59 Mostly Cloudy 79 26.1 68 20 69 69 SSW 12 19 30.06 1018 8 13 0.00 0.00
9:59 am 09:59 Mostly Cloudy 82 27.8 70 21.1 67 67 SW 7 11 30.06 1018 8 13 0.00 0.00
10:59 am 10:59 Mostly Cloudy 85 29.4 71 21.7 63 63 WSW 9 15 30.05 1018 8 13 0.00 0.00
11:59 am 11:59 Mostly Cloudy 87 30.6 70 21.1 57 57 WSW 9 15 30.04 1017 8 13 0.00 0.00
12:59 pm 12:59 Mostly Cloudy 90 32.2 70 21.1 52 52 SW 12 19 30.02 1017 9 14 0.00 0.00
1:59 pm 13:59 Mostly Cloudy 91 32.8 69 20.6 49 49 SW 13 20 30.00 1016 9 14 0.00 0.00
2:59 pm 14:59 Cloudy 88 31.1 69 20.6 54 54 SSW 9 15 29.99 1016 9 14 0.00 0.00
3:59 pm 15:59 Mostly Cloudy 88 31.1 69 20.6 54 54 SSW 10 17 29.97 1015 9 14 0.00 0.00
4:59 pm 16:59 Mostly Cloudy 90 32.2 68 20 48 48 SSW 10 17 29.96 1014 9 14 0.00 0.00
5:59 pm 17:59 Mostly Cloudy 89 31.7 67 19.4 48 48 SSW 12 19 29.96 1014 9 14 0.00 0.00
6:59 pm 18:59 Mostly Cloudy 87 30.6 65 18.3 48 48 SW 12 19 29.95 1014 9 14 0.00 0.00
7:59 pm 19:59 Mostly Cloudy 85 29.4 66 18.9 53 53 SW 8 13 29.97 1015 9 14 0.00 0.00
8:59 pm 20:59 Mostly Cloudy 84 28.9 66 18.9 55 55 SW 8 13 29.97 1015 9 14 0.00 0.00
9:59 pm 21:59 Mostly Cloudy 83 28.3 66 18.9 57 57 SSW 8 13 29.97 1015 9 14 0.00 0.00
10:59 pm 22:59 Mostly Cloudy 82 27.8 67 19.4 60 60 SSW 7 11 29.97 1015 9 14 0.00 0.00
11:59 pm 23:59 Clear 80 26.7 67 19.4 64 64 SSW 8 13 29.96 1015 9 14 0.00 0.00

Powered by AerisWeather